contact:dominique.lefevre@mio.osupytheas.fr, maurice.libes@osupytheas.fr
Project:EMSO Ligure-ouest http://www.emso-fr.org/EMSO-France
Sensor Aquadopp, line 13 Serial AQD14315 
DOI : "https://doi.org/10.17882/74513; https://doi.org/10.17882/83244" 
Title:EMSO Ligure Ouest : Data ligne ALBATROSS capteur AQUADOPP - deploiement 2021
Id,Date,Profondeur,Latitude,Longitude,X_East,Y_North,Z_Up,Amplitude_X,Amplitude_Y,Amplitude_Z,Batterie,SoundSpeed,Heading,Pitch,Roll,Pressure,Temperature,Speed,Direction
, , m, degrees North, degrees East, m.s-1, m.s-1,m.s-1, 1, 1, 1, Volt, m.s-1, degree, degree, degree, dbar, degree_C, m.s-1, degree
07,2022-07-23T23:30:00,1500.0,42.79,6.0312,0.022,-0.016,0.002,49.0,49.0,49.0,13.2,1504.1,330.8,0.4,1.1,1475.178,13.12,0.027,126.0
07,2022-07-24T00:00:00,1500.0,42.79,6.0312,0.024,-0.016,0.011,50.0,49.0,48.0,13.2,1504.1,330.9,-0.1,0.8,1475.173,13.12,0.028,123.7
07,2022-07-24T00:30:00,1500.0,42.79,6.0312,0.016,-0.013,0.004,50.0,49.0,50.0,13.2,1504.1,337.1,0.3,1.0,1475.138,13.12,0.02,129.1
07,2022-07-24T01:00:00,1500.0,42.79,6.0312,0.022,-0.011,0.0,46.0,49.0,48.0,13.2,1504.1,336.3,-0.1,0.8,1475.18,13.12,0.024,116.6
07,2022-07-24T01:30:00,1500.0,42.79,6.0312,0.026,0.002,-0.002,48.0,50.0,48.0,13.2,1504.1,336.2,0.3,1.1,1475.196,13.12,0.026,85.6
07,2022-07-24T02:00:00,1500.0,42.79,6.0312,0.021,-0.004,-0.009,47.0,48.0,50.0,13.2,1504.1,335.9,0.3,0.7,1475.206,13.12,0.021,100.8
07,2022-07-24T02:30:00,1500.0,42.79,6.0312,0.017,-0.004,-0.002,50.0,48.0,50.0,13.2,1504.1,336.1,0.0,0.8,1475.183,13.12,0.017,103.2
07,2022-07-24T03:00:00,1500.0,42.79,6.0312,0.023,-0.016,0.019,49.0,51.0,49.0,13.2,1504.1,337.4,0.2,0.8,1475.224,13.12,0.028,124.8
07,2022-07-24T03:30:00,1500.0,42.79,6.0312,0.029,-0.002,0.0,47.0,49.0,48.0,13.2,1504.1,334.0,0.3,0.7,1475.211,13.12,0.029,93.9
07,2022-07-24T04:00:00,1500.0,42.79,6.0312,0.023,-0.001,0.009,48.0,50.0,48.0,13.2,1504.1,336.5,0.4,0.8,1475.229,13.12,0.023,92.5
07,2022-07-24T04:30:00,1500.0,42.79,6.0312,0.028,0.009,-0.001,47.0,48.0,49.0,13.2,1504.1,335.2,-0.2,1.0,1475.21,13.12,0.029,72.2
07,2022-07-24T05:00:00,1500.0,42.79,6.0312,0.029,-0.009,-0.005,47.0,50.0,49.0,13.2,1504.1,335.8,0.1,0.8,1475.201,13.12,0.03,107.2
07,2022-07-24T05:30:00,1500.0,42.79,6.0312,0.022,-0.01,-0.011,48.0,49.0,48.0,13.2,1504.1,336.9,0.3,0.7,1475.185,13.12,0.024,114.4
07,2022-07-24T06:00:00,1500.0,42.79,6.0312,0.036,-0.007,-0.006,50.0,49.0,50.0,13.2,1504.1,333.5,0.3,0.7,1475.202,13.12,0.036,101.0
07,2022-07-24T06:30:00,1500.0,42.79,6.0312,0.047,-0.009,0.002,48.0,47.0,50.0,13.2,1504.1,333.1,0.0,1.1,1475.158,13.12,0.047,100.8
07,2022-07-24T07:00:00,1500.0,42.79,6.0312,0.037,-0.013,0.007,48.0,52.0,49.0,13.2,1504.1,323.5,-0.2,0.8,1475.156,13.12,0.039,109.4
07,2022-07-24T07:30:00,1500.0,42.79,6.0312,0.04,-0.016,-0.006,46.0,49.0,48.0,13.2,1504.1,320.5,0.0,0.7,1475.168,13.12,0.043,111.8
07,2022-07-24T08:00:00,1500.0,42.79,6.0312,0.041,-0.019,0.013,49.0,48.0,48.0,13.2,1504.1,327.4,0.5,0.7,1475.134,13.12,0.045,114.9
07,2022-07-24T08:30:00,1500.0,42.79,6.0312,0.033,-0.012,0.011,48.0,49.0,49.0,13.2,1504.1,320.7,-0.2,0.8,1475.114,13.12,0.035,110.0
07,2022-07-24T09:00:00,1500.0,42.79,6.0312,0.034,-0.018,-0.004,46.0,49.0,50.0,13.2,1504.1,320.0,0.1,1.1,1475.12,13.12,0.038,117.9
07,2022-07-24T09:30:00,1500.0,42.79,6.0312,0.038,-0.027,0.006,48.0,50.0,49.0,13.2,1504.1,323.7,0.3,0.8,1475.122,13.12,0.046,125.4
07,2022-07-24T10:00:00,1500.0,42.79,6.0312,0.039,-0.023,0.005,48.0,50.0,49.0,13.2,1504.1,322.7,0.4,0.7,1475.142,13.12,0.045,120.5
07,2022-07-24T10:30:00,1500.0,42.79,6.0312,0.035,-0.019,0.0,47.0,49.0,48.0,13.2,1504.1,317.3,0.0,0.9,1475.112,13.12,0.039,118.5
07,2022-07-24T11:00:00,1500.0,42.79,6.0312,0.03,-0.024,0.0,51.0,49.0,49.0,13.2,1504.1,316.5,0.2,0.7,1475.081,13.12,0.038,128.7
07,2022-07-24T11:30:00,1500.0,42.79,6.0312,0.036,-0.008,-0.01,50.0,48.0,47.0,13.2,1504.1,325.1,0.3,0.9,1475.092,13.12,0.036,102.5
07,2022-07-24T12:00:00,1500.0,42.79,6.0312,0.025,-0.017,-0.005,47.0,49.0,50.0,13.2,1504.1,319.1,0.0,0.8,1475.139,13.12,0.03,124.2
07,2022-07-24T12:30:00,1500.0,42.79,6.0312,0.033,-0.019,-0.004,49.0,50.0,48.0,13.2,1504.1,325.9,0.1,0.9,1475.087,13.12,0.038,119.9
07,2022-07-24T13:00:00,1500.0,42.79,6.0312,0.017,-0.018,0.001,50.0,49.0,49.0,13.2,1504.1,325.2,0.1,0.7,1475.151,13.12,0.024,136.6
07,2022-07-24T13:30:00,1500.0,42.79,6.0312,0.021,-0.019,-0.013,51.0,48.0,49.0,13.2,1504.1,325.8,0.0,1.1,1475.136,13.12,0.028,132.1
07,2022-07-24T14:00:00,1500.0,42.79,6.0312,0.033,-0.026,0.01,47.0,50.0,50.0,13.2,1504.1,327.4,0.4,1.1,1475.158,13.12,0.042,128.2
07,2022-07-24T14:30:00,1500.0,42.79,6.0312,0.035,-0.02,-0.004,49.0,51.0,49.0,13.2,1504.1,325.3,0.2,1.0,1475.197,13.12,0.04,119.7
07,2022-07-24T15:00:00,1500.0,42.79,6.0312,0.031,-0.016,0.0,49.0,51.0,48.0,13.2,1504.1,333.1,0.3,1.1,1475.219,13.12,0.034,117.3
07,2022-07-24T15:30:00,1500.0,42.79,6.0312,0.017,-0.01,0.013,47.0,51.0,48.0,13.2,1504.1,332.9,-0.1,0.7,1475.231,13.12,0.019,120.5
07,2022-07-24T16:00:00,1500.0,42.79,6.0312,0.025,-0.009,-0.003,47.0,49.0,50.0,13.2,1504.1,335.3,0.2,0.8,1475.239,13.12,0.026,109.8
07,2022-07-24T16:30:00,1500.0,42.79,6.0312,0.022,-0.007,-0.006,50.0,50.0,48.0,13.2,1504.1,341.4,0.1,0.9,1475.221,13.12,0.023,107.6
07,2022-07-24T17:00:00,1500.0,42.79,6.0312,0.015,-0.017,0.005,49.0,50.0,49.0,13.2,1504.1,339.0,-0.1,0.7,1475.21,13.12,0.022,138.6
07,2022-07-24T17:30:00,1500.0,42.79,6.0312,0.029,-0.014,-0.01,49.0,50.0,49.0,13.2,1504.1,342.5,0.0,1.0,1475.198,13.12,0.032,115.8
07,2022-07-24T18:00:00,1500.0,42.79,6.0312,0.023,-0.013,0.009,47.0,48.0,49.0,13.2,1504.1,343.5,0.1,1.0,1475.226,13.12,0.026,119.5
07,2022-07-24T18:30:00,1500.0,42.79,6.0312,0.029,-0.016,-0.004,47.0,52.0,48.0,13.2,1504.1,346.2,0.2,0.8,1475.215,13.12,0.033,118.9
07,2022-07-24T19:00:00,1500.0,42.79,6.0312,0.029,-0.011,0.002,50.0,49.0,49.0,13.2,1504.1,350.7,-0.2,0.9,1475.203,13.12,0.031,110.8
07,2022-07-24T19:30:00,1500.0,42.79,6.0312,0.015,-0.009,0.009,49.0,48.0,48.0,13.2,1504.1,353.2,0.4,0.8,1475.188,13.12,0.017,121.0
07,2022-07-24T20:00:00,1500.0,42.79,6.0312,0.026,-0.011,0.0,51.0,48.0,49.0,13.2,1504.1,355.0,0.1,1.1,1475.21,13.12,0.028,112.9
07,2022-07-24T20:30:00,1500.0,42.79,6.0312,0.02,-0.014,0.001,48.0,48.0,48.0,13.2,1504.1,354.5,-0.1,0.7,1475.191,13.12,0.024,125.0
07,2022-07-24T21:00:00,1500.0,42.79,6.0312,0.021,-0.011,0.025,47.0,51.0,50.0,13.2,1504.1,357.7,0.0,1.1,1475.197,13.12,0.023,117.6
07,2022-07-24T21:30:00,1500.0,42.79,6.0312,0.022,-0.007,0.004,47.0,50.0,48.0,13.2,1504.1,356.4,0.1,0.7,1475.163,13.12,0.023,107.6
07,2022-07-24T22:00:00,1500.0,42.79,6.0312,0.022,-0.006,0.005,48.0,51.0,50.0,13.2,1504.1,353.8,0.0,1.0,1475.15,13.12,0.022,105.3
07,2022-07-24T22:30:00,1500.0,42.79,6.0312,0.032,-0.015,-0.007,49.0,49.0,49.0,13.2,1504.1,352.4,0.0,1.0,1475.166,13.12,0.035,115.1
07,2022-07-24T23:00:00,1500.0,42.79,6.0312,0.02,-0.006,0.006,49.0,49.0,50.0,13.2,1504.1,344.6,0.3,0.8,1475.106,13.12,0.02,106.7
